QPF
0.00 0.00 0.00 0.00 0.00 0.00 0.00 0.00 0.00 0.00 0.00 0.00 0.00 0.00 0.00 0.00 0.00 0.00 0.00 0.00 0.00 0.00 0.00 0.00 0.00 0.00 0.00 0.00 0.01 0.01 0.02 0.02 0.01 0.02 0.03 0.02 0.01 0.02 0.02 0.01 0.02 0.02 0.02
0.00 0.00 0.00 0.00 0.00 0.00 0.00 0.00 0.00 0.00 0.00 0.00 0.00 0.00 0.00 0.00 0.00 0.00 0.00 0.00 0.00 0.00 0.00 0.00 0.00 0.00 0.00 0.00 0.01 0.01 0.02 0.02 0.02 0.02 0.03 0.03 0.03 0.02 0.01 0.01 0.01 0.01 0.02
0.00 0.00 0.00 0.00 0.00 0.00 0.00 0.00 0.00 0.00 0.00 0.00 0.00 0.00 0.00 0.00 0.00 0.00 0.00 0.00 0.00 0.00 0.00 0.00 0.01 0.01 0.01 0.01 0.01 0.01 0.01 0.02 0.02 0.02 0.02 0.03 0.03 0.02 0.01 0.01 0.02 0.01 0.02
0.00 0.00 0.00 0.00 0.00 0.00 0.00 0.00 0.00 0.00 0.00 0.00 0.00 0.00 0.00 0.00 0.00 0.00 0.00 0.00 0.00 0.00 0.00 0.00 0.00 0.01 0.01 0.01 0.00 0.00 0.01 0.01 0.02 0.01 0.01 0.02 0.03 0.03 0.02 0.02 0.02 0.02 0.03
0.00 0.00 0.00 0.00 0.00 0.00 0.00 0.00 0.00 0.00 0.00 0.00 0.00 0.00 0.00 0.00 0.00 0.00 0.00 0.00 0.00 0.00 0.00 0.00 0.00 0.00 0.01 0.01 0.02 0.01 0.00 0.01 0.02 0.01 0.01 0.02 0.02 0.02 0.03 0.03 0.02 0.03 0.03
0.00 0.00 0.00 0.00 0.00 0.00 0.00 0.00 0.00 0.00 0.00 0.00 0.00 0.00 0.00 0.00 0.00 0.00 0.00 0.00 0.00 0.00 0.00 0.00 0.00 0.00 0.00 0.00 0.01 0.01 0.00 0.00 0.00 0.01 0.01 0.02 0.02 0.03 0.04 0.04 0.03 0.03 0.02
0.00 0.00 0.00 0.00 0.00 0.00 0.00 0.00 0.00 0.00 0.00 0.00 0.00 0.00 0.00 0.00 0.00 0.00 0.00 0.00 0.00 0.00 0.00 0.00 0.00 0.00 0.00 0.00 0.00 0.01 0.01 0.00 0.00 0.01 0.01 0.01 0.01 0.02 0.03 0.04 0.04 0.04 0.03
0.00 0.00 0.00 0.00 0.00 0.00 0.00 0.00 0.00 0.00 0.00 0.00 0.00 0.00 0.00 0.00 0.00 0.00 0.00 0.00 0.00 0.00 0.00 0.00 0.00 0.00 0.00 0.00 0.00 0.00 0.00 0.01 0.01 0.01 0.01 0.00 0.00 0.01 0.02 0.04 0.03 0.03 0.04
0.00 0.00 0.00 0.00 0.00 0.00 0.00 0.00 0.00 0.00 0.00 0.00 0.00 0.00 0.00 0.00 0.00 0.00 0.00 0.00 0.00 0.00 0.00 0.00 0.00 0.00 0.00 0.00 0.00 0.00 0.00 0.00 0.00 0.01 0.01 0.01 0.01 0.01 0.01 0.01 0.02 0.03 0.04
0.00 0.00 0.00 0.00 0.00 0.00 0.00 0.00 0.00 0.00 0.00 0.00 0.00 0.00 0.00 0.00 0.00 0.00 0.00 0.00 0.00 0.00 0.00 0.00 0.00 0.00 0.00 0.00 0.00 0.00 0.00 0.00 0.00 0.01 0.01 0.01 0.01 0.01 0.01 0.01 0.01 0.02 0.03
0.00 0.00 0.00 0.00 0.00 0.00 0.00 0.00 0.00 0.00 0.00 0.00 0.00 0.00 0.00 0.00 0.00 0.00 0.00 0.00 0.00 0.00 0.00 0.00 0.00 0.00 0.00 0.00 0.00 0.00 0.00 0.00 0.00 0.00 0.01 0.01 0.01 0.01 0.01 0.01 0.01 0.01 0.02
0.00 0.00 0.00 0.00 0.00 0.00 0.00 0.00 0.00 0.00 0.00 0.00 0.00 0.00 0.00 0.00 0.00 0.00 0.00 0.00 0.00 0.00 0.00 0.00 0.00 0.00 0.00 0.00 0.00 0.00 0.00 0.00 0.00 0.00 0.01 0.02 0.01 0.01 0.01 0.01 0.01 0.01 0.01
0.00 0.00 0.00 0.00 0.00 0.00 0.00 0.00 0.00 0.00 0.00 0.00 0.00 0.00 0.00 0.00 0.00 0.00 0.00 0.00 0.00 0.00 0.00 0.00 0.00 0.00 0.00 0.00 0.00 0.00 0.00 0.00 0.00 0.00 0.02 0.02 0.01 0.02 0.02 0.01 0.01 0.01 0.01
0.00 0.00 0.00 0.00 0.00 0.00 0.00 0.00 0.00 0.00 0.00 0.00 0.00 0.00 0.00 0.00 0.00 0.00 0.00 0.00 0.00 0.00 0.00 0.00 0.00 0.00 0.00 0.00 0.00 0.00 0.00 0.00 0.00 0.00 0.01 0.02 0.02 0.02 0.01 0.01 0.01 0.01 0.02
0.00 0.00 0.00 0.00 0.00 0.00 0.00 0.00 0.00 0.00 0.00 0.00 0.00 0.00 0.00 0.00 0.00 0.00 0.00 0.00 0.00 0.00 0.00 0.00 0.00 0.00 0.00 0.00 0.00 0.00 0.00 0.00 0.00 0.00 0.01 0.02 0.02 0.02 0.01 0.01 0.02 0.02 0.02
0.00 0.00 0.00 0.00 0.00 0.00 0.00 0.00 0.00 0.00 0.00 0.00 0.00 0.00 0.00 0.00 0.00 0.00 0.00 0.00 0.00 0.00 0.00 0.00 0.00 0.00 0.00 0.00 0.00 0.00 0.00 0.00 0.00 0.00 0.00 0.01 0.01 0.01 0.00 0.01 0.01 0.02 0.02
0.00 0.00 0.00 0.00 0.00 0.00 0.00 0.00 0.00 0.00 0.00 0.00 0.00 0.00 0.00 0.00 0.00 0.00 0.00 0.00 0.00 0.00 0.00 0.00 0.00 0.00 0.00 0.00 0.00 0.00 0.00 0.00 0.00 0.00 0.00 0.00 0.00 0.01 0.01 0.01 0.01 0.01 0.01
0.00 0.00 0.00 0.00 0.00 0.00 0.00 0.00 0.00 0.00 0.00 0.00 0.00 0.00 0.00 0.00 0.00 0.00 0.00 0.00 0.00 0.00 0.00 0.00 0.00 0.00 0.00 0.00 0.00 0.00 0.00 0.00 0.00 0.00 0.00 0.00 0.00 0.00 0.01 0.01 0.01 0.01 0.01
0.00 0.00 0.00 0.00 0.00 0.00 0.00 0.00 0.00 0.00 0.00 0.00 0.00 0.00 0.00 0.00 0.00 0.00 0.00 0.00 0.00 0.00 0.00 0.00 0.00 0.00 0.00 0.00 0.00 0.00 0.00 0.00 0.00 0.00 0.00 0.00 0.00 0.00 0.00 0.01 0.02 0.02 0.01
0.00 0.00 0.00 0.00 0.00 0.00 0.00 0.00 0.00 0.00 0.00 0.00 0.00 0.00 0.00 0.00 0.00 0.00 0.00 0.00 0.00 0.00 0.00 0.00 0.00 0.00 0.00 0.00 0.00 0.00 0.00 0.00 0.00 0.00 0.00 0.00 0.00 0.00 0.00 0.01 0.03 0.02 0.01
0.00 0.00 0.00 0.00 0.00 0.00 0.00 0.00 0.00 0.00 0.00 0.00 0.00 0.00 0.00 0.00 0.00 0.00 0.00 0.00 0.00 0.00 0.00 0.00 0.00 0.00 0.00 0.00 0.00 0.00 0.00 0.00 0.00 0.00 0.00 0.00 0.00 0.00 0.00 0.01 0.02 0.02 0.01
0.00 0.00 0.00 0.00 0.00 0.00 0.00 0.00 0.00 0.00 0.00 0.00 0.00 0.00 0.00 0.00 0.00 0.00 0.00 0.00 0.00 0.00 0.00 0.00 0.00 0.00 0.00 0.00 0.00 0.00 0.00 0.00 0.00 0.00 0.00 0.00 0.00 0.00 0.00 0.01 0.01 0.01 0.02
0.00 0.00 0.00 0.00 0.00 0.00 0.00 0.00 0.00 0.00 0.00 0.00 0.00 0.00 0.00 0.00 0.00 0.00 0.00 0.00 0.00 0.00 0.00 0.00 0.00 0.00 0.00 0.00 0.00 0.00 0.00 0.00 0.00 0.00 0.00 0.00 0.00 0.00 0.00 0.00 0.01 0.01 0.02
0.00 0.00 0.00 0.00 0.00 0.00 0.00 0.00 0.00 0.00 0.00 0.00 0.00 0.00 0.00 0.00 0.00 0.00 0.00 0.00 0.00 0.00 0.00 0.00 0.00 0.00 0.00 0.00 0.00 0.00 0.00 0.00 0.00 0.00 0.00 0.00 0.00 0.00 0.00 0.01 0.01 0.01 0.02
0.00 0.00 0.00 0.00 0.00 0.00 0.00 0.00 0.00 0.00 0.00 0.00 0.00 0.00 0.00 0.00 0.00 0.00 0.00 0.00 0.00 0.00 0.00 0.00 0.00 0.00 0.00 0.00 0.00 0.00 0.00 0.00 0.00 0.00 0.00 0.00 0.00 0.00 0.01 0.01 0.01 0.02 0.03
0.00 0.00 0.00 0.00 0.00 0.00 0.00 0.00 0.00 0.00 0.00 0.00 0.00 0.00 0.00 0.00 0.00 0.00 0.00 0.00 0.00 0.00 0.00 0.00 0.00 0.00 0.00 0.00 0.00 0.00 0.00 0.00 0.00 0.00 0.00 0.00 0.01 0.01 0.02 0.02 0.02 0.02 0.04
MSLP
1015.05 1015.03 1015.03 1015.05 1015.09 1015.14 1015.24 1015.38 1015.59 1015.85 1016.16 1016.50 1016.83 1017.12 1017.35 1017.51 1017.58 1017.58 1017.53 1017.46 1017.37 1017.30 1017.24 1017.18 1017.12 1017.06 1016.98 1016.89 1016.80 1016.73 1016.67 1016.65 1016.65 1016.64 1016.62 1016.54 1016.38 1016.13 1015.80 1015.42 1015.02 1014.65 1014.35
1015.10 1015.13 1015.16 1015.18 1015.18 1015.19 1015.22 1015.32 1015.50 1015.77 1016.11 1016.51 1016.93 1017.32 1017.64 1017.87 1018.00 1018.04 1018.00 1017.92 1017.82 1017.73 1017.66 1017.60 1017.55 1017.49 1017.42 1017.35 1017.27 1017.20 1017.15 1017.13 1017.14 1017.16 1017.16 1017.11 1016.98 1016.76 1016.44 1016.05 1015.63 1015.23 1014.88
1015.03 1015.14 1015.22 1015.26 1015.26 1015.24 1015.23 1015.28 1015.43 1015.69 1016.06 1016.52 1017.01 1017.48 1017.90 1018.21 1018.41 1018.49 1018.48 1018.41 1018.32 1018.23 1018.15 1018.10 1018.05 1018.01 1017.95 1017.87 1017.79 1017.72 1017.66 1017.64 1017.65 1017.68 1017.70 1017.69 1017.60 1017.42 1017.15 1016.78 1016.37 1015.96 1015.58
1014.81 1015.03 1015.20 1015.31 1015.33 1015.31 1015.29 1015.31 1015.43 1015.67 1016.05 1016.53 1017.08 1017.62 1018.12 1018.51 1018.77 1018.91 1018.95 1018.91 1018.84 1018.76 1018.70 1018.65 1018.62 1018.59 1018.54 1018.48 1018.40 1018.31 1018.24 1018.21 1018.21 1018.24 1018.28 1018.30 1018.26 1018.14 1017.91 1017.60 1017.22 1016.82 1016.42
1014.46 1014.82 1015.12 1015.32 1015.42 1015.43 1015.41 1015.41 1015.51 1015.73 1016.09 1016.58 1017.16 1017.75 1018.30 1018.76 1019.09 1019.29 1019.37 1019.38 1019.33 1019.28 1019.24 1019.22 1019.22 1019.21 1019.18 1019.12 1019.05 1018.96 1018.88 1018.83 1018.82 1018.84 1018.89 1018.94 1018.94 1018.88 1018.72 1018.47 1018.13 1017.75 1017.35
1014.05 1014.55 1015.00 1015.33 1015.53 1015.61 1015.61 1015.61 1015.68 1015.87 1016.21 1016.68 1017.25 1017.86 1018.45 1018.95 1019.34 1019.59 1019.73 1019.77 1019.77 1019.75 1019.74 1019.75 1019.78 1019.80 1019.80 1019.77 1019.71 1019.62 1019.54 1019.48 1019.45 1019.47 1019.52 1019.58 1019.62 1019.61 1019.52 1019.33 1019.05 1018.69 1018.30
1013.62 1014.28 1014.88 1015.35 1015.67 1015.83 1015.88 1015.89 1015.94 1016.09 1016.38 1016.81 1017.35 1017.96 1018.55 1019.08 1019.51 1019.80 1019.98 1020.07 1020.10 1020.12 1020.14 1020.18 1020.24 1020.30 1020.33 1020.34 1020.31 1020.24 1020.17 1020.10 1020.07 1020.08 1020.13 1020.20 1020.27 1020.30 1020.26 1020.13 1019.91 1019.59 1019.21
1013.23 1014.02 1014.77 1015.38 1015.81 1016.06 1016.17 1016.20 1016.23 1016.34 1016.58 1016.96 1017.46 1018.03 1018.62 1019.15 1019.60 1019.92 1020.13 1020.25 1020.31 1020.36 1020.40 1020.48 1020.57 1020.66 1020.74 1020.79 1020.80 1020.77 1020.71 1020.66 1020.63 1020.63 1020.67 1020.75 1020.83 1020.90 1020.91 1020.84 1020.67 1020.40 1020.05
1012.90 1013.79 1014.65 1015.39 1015.93 1016.27 1016.42 1016.48 1016.50 1016.58 1016.77 1017.10 1017.55 1018.08 1018.64 1019.17 1019.62 1019.96 1020.19 1020.32 1020.41 1020.47 1020.53 1020.63 1020.74 1020.87 1020.99 1021.09 1021.14 1021.16 1021.14 1021.11 1021.08 1021.09 1021.13 1021.21 1021.30 1021.39 1021.44 1021.42 1021.31 1021.10 1020.79
1012.61 1013.57 1014.51 1015.33 1015.96 1016.37 1016.58 1016.66 1016.69 1016.76 1016.92 1017.20 1017.61 1018.10 1018.64 1019.15 1019.59 1019.93 1020.17 1020.32 1020.41 1020.48 1020.55 1020.65 1020.79 1020.95 1021.11 1021.25 1021.35 1021.41 1021.43 1021.43 1021.42 1021.44 1021.48 1021.56 1021.66 1021.77 1021.85 1021.87 1021.82 1021.68 1021.43
1012.32 1013.30 1014.29 1015.16 1015.84 1016.31 1016.57 1016.69 1016.75 1016.82 1016.97 1017.24 1017.62 1018.10 1018.61 1019.11 1019.54 1019.89 1020.12 1020.27 1020.36 1020.43 1020.50 1020.61 1020.75 1020.93 1021.12 1021.29 1021.44 1021.55 1021.61 1021.64 1021.66 1021.69 1021.73 1021.81 1021.92 1022.03 1022.14 1022.20 1022.21 1022.13 1021.96
1011.97 1012.95 1013.93 1014.82 1015.53 1016.04 1016.36 1016.53 1016.63 1016.74 1016.92 1017.20 1017.59 1018.06 1018.57 1019.06 1019.49 1019.83 1020.07 1020.22 1020.31 1020.37 1020.44 1020.55 1020.70 1020.88 1021.09 1021.29 1021.47 1021.61 1021.71 1021.78 1021.82 1021.85 1021.90 1021.98 1022.08 1022.21 1022.33 1022.43 1022.49 1022.48 1022.39
1011.53 1012.47 1013.42 1014.29 1015.01 1015.56 1015.93 1016.17 1016.34 1016.52 1016.76 1017.08 1017.50 1017.98 1018.50 1018.99 1019.42 1019.77 1020.01 1020.16 1020.26 1020.32 1020.40 1020.50 1020.65 1020.84 1021.06 1021.28 1021.48 1021.65 1021.78 1021.86 1021.91 1021.96 1022.01 1022.08 1022.18 1022.31 1022.44 1022.57 1022.67 1022.72 1022.70
1010.99 1011.86 1012.76 1013.60 1014.31 1014.88 1015.31 1015.63 1015.89 1016.16 1016.48 1016.87 1017.34 1017.85 1018.39 1018.89 1019.33 1019.68 1019.94 1020.10 1020.21 1020.29 1020.37 1020.48 1020.64 1020.84 1021.06 1021.29 1021.50 1021.68 1021.81 1021.91 1021.97 1022.01 1022.06 1022.12 1022.22 1022.34 1022.48 1022.62 1022.75 1022.85 1022.89
1010.38 1011.17 1011.99 1012.77 1013.47 1014.06 1014.54 1014.95 1015.31 1015.69 1016.10 1016.57 1017.09 1017.65 1018.21 1018.73 1019.18 1019.54 1019.81 1019.99 1020.12 1020.23 1020.34 1020.47 1020.64 1020.84 1021.07 1021.30 1021.51 1021.68 1021.82 1021.91 1021.96 1022.00 1022.04 1022.09 1022.18 1022.29 1022.43 1022.58 1022.73 1022.86 1022.95
1009.74 1010.43 1011.17 1011.89 1012.56 1013.15 1013.69 1014.17 1014.64 1015.12 1015.62 1016.17 1016.75 1017.35 1017.93 1018.46 1018.92 1019.29 1019.58 1019.79 1019.96 1020.10 1020.24 1020.41 1020.60 1020.82 1021.05 1021.27 1021.47 1021.64 1021.76 1021.83 1021.88 1021.90 1021.93 1021.98 1022.06 1022.16 1022.30 1022.45 1022.60 1022.74 1022.85
1009.14 1009.73 1010.36 1011.01 1011.63 1012.23 1012.80 1013.35 1013.90 1014.47 1015.06 1015.67 1016.30 1016.92 1017.51 1018.04 1018.51 1018.89 1019.21 1019.46 1019.66 1019.85 1020.04 1020.25 1020.47 1020.70 1020.94 1021.15 1021.34 1021.49 1021.59 1021.65 1021.68 1021.70 1021.72 1021.76 1021.84 1021.94 1022.07 1022.22 1022.37 1022.51 1022.63
1008.63 1009.10 1009.63 1010.18 1010.76 1011.34 1011.92 1012.52 1013.12 1013.75 1014.40 1015.05 1015.70 1016.33 1016.92 1017.46 1017.92 1018.32 1018.66 1018.95 1019.21 1019.45 1019.69 1019.94 1020.20 1020.45 1020.69 1020.90 1021.07 1021.20 1021.28 1021.33 1021.35 1021.37 1021.39 1021.44 1021.51 1021.62 1021.75 1021.90 1022.04 1022.17 1022.27
1008.23 1008.58 1008.99 1009.45 1009.96 1010.50 1011.07 1011.68 1012.31 1012.97 1013.64 1014.31 1014.97 1015.59 1016.18 1016.70 1017.17 1017.59 1017.95 1018.28 1018.59 1018.89 1019.18 1019.47 1019.76 1020.03 1020.27 1020.48 1020.64 1020.75 1020.82 1020.86 1020.89 1020.91 1020.95 1021.01 1021.10 1021.21 1021.35 1021.50 1021.63 1021.74 1021.82
1007.94 1008.17 1008.46 1008.82 1009.24 1009.72 1010.26 1010.85 1011.48 1012.13 1012.80 1013.46 1014.11 1014.72 1015.29 1015.81 1016.28 1016.71 1017.11 1017.48 1017.84 1018.19 1018.52 1018.85 1019.16 1019.45 1019.69 1019.89 1020.04 1020.15 1020.22 1020.26 1020.30 1020.34 1020.40 1020.49 1020.60 1020.74 1020.88 1021.02 1021.15 1021.23 1021.28
1007.74 1007.84 1008.01 1008.26 1008.59 1009.00 1009.48 1010.02 1010.61 1011.24 1011.88 1012.52 1013.14 1013.74 1014.29 1014.82 1015.30 1015.75 1016.18 1016.59 1016.99 1017.38 1017.75 1018.11 1018.43 1018.72 1018.97 1019.16 1019.31 1019.41 1019.49 1019.56 1019.62 1019.69 1019.79 1019.91 1020.05 1020.20 1020.35 1020.49 1020.59 1020.65 1020.66
1007.57 1007.56 1007.62 1007.77 1008.00 1008.32 1008.73 1009.20 1009.74 1010.32 1010.92 1011.52 1012.11 1012.69 1013.24 1013.77 1014.27 1014.74 1015.21 1015.65 1016.09 1016.51 1016.90 1017.27 1017.60 1017.88 1018.12 1018.31 1018.46 1018.58 1018.68 1018.77 1018.87 1018.99 1019.12 1019.28 1019.45 1019.61 1019.76 1019.88 1019.95 1019.98 1019.94
1007.43 1007.32 1007.28 1007.33 1007.47 1007.70 1008.02 1008.42 1008.88 1009.39 1009.94 1010.50 1011.06 1011.62 1012.17 1012.70 1013.22 1013.72 1014.22 1014.69 1015.15 1015.58 1015.99 1016.35 1016.68 1016.95 1017.19 1017.38 1017.54 1017.68 1017.81 1017.94 1018.08 1018.24 1018.42 1018.60 1018.78 1018.95 1019.09 1019.18 1019.22 1019.20 1019.12
1007.30 1007.11 1006.99 1006.95 1007.00 1007.15 1007.38 1007.69 1008.07 1008.50 1008.98 1009.49 1010.02 1010.55 1011.09 1011.63 1012.17 1012.69 1013.21 1013.70 1014.17 1014.60 1015.00 1015.36 1015.67 1015.94 1016.17 1016.36 1016.54 1016.71 1016.88 1017.06 1017.25 1017.45 1017.66 1017.87 1018.06 1018.21 1018.32 1018.37 1018.36 1018.29 1018.17
1007.19 1006.95 1006.76 1006.65 1006.62 1006.68 1006.82 1007.04 1007.32 1007.67 1008.08 1008.52 1009.00 1009.51 1010.03 1010.57 1011.11 1011.64 1012.16 1012.65 1013.12 1013.54 1013.93 1014.26 1014.56 1014.82 1015.05 1015.27 1015.47 1015.68 1015.89 1016.12 1016.36 1016.60 1016.83 1017.05 1017.23 1017.36 1017.44 1017.44 1017.38 1017.26 1017.09
1007.16 1006.87 1006.63 1006.46 1006.36 1006.33 1006.37 1006.49 1006.68 1006.93 1007.24 1007.61 1008.03 1008.49 1008.98 1009.49 1010.01 1010.53 1011.03 1011.51 1011.96 1012.36 1012.72 1013.05 1013.33 1013.59 1013.84 1014.07 1014.32 1014.57 1014.83 1015.11 1015.39 1015.66 1015.91 1016.12 1016.28 1016.39 1016.41 1016.37 1016.27 1016.11 1015.91
Thickness
5754 5755 5755 5756 5756 5756 5754 5752 5750 5749 5747 5745 5743 5740 5739 5740 5739 5737 5735 5734 5732 5731 5730 5728 5726 5724 5722 5720 5719 5718 5716 5716 5717 5715 5714 5718 5722 5721 5721 5721 5721 5721 5721
5751 5751 5752 5753 5754 5752 5752 5750 5749 5747 5745 5744 5743 5742 5740 5739 5737 5735 5734 5732 5730 5729 5728 5726 5724 5723 5720 5718 5717 5715 5712 5712 5714 5709 5705 5703 5707 5713 5717 5717 5717 5717 5717
5750 5749 5750 5751 5750 5750 5750 5749 5747 5746 5745 5744 5743 5741 5739 5736 5734 5732 5731 5730 5729 5727 5725 5724 5722 5721 5719 5716 5715 5713 5710 5707 5709 5709 5703 5695 5691 5698 5707 5711 5712 5712 5713
5754 5751 5750 5749 5749 5749 5750 5749 5747 5745 5744 5743 5740 5737 5732 5729 5730 5730 5729 5729 5727 5725 5724 5722 5720 5719 5717 5714 5713 5712 5709 5706 5702 5704 5704 5701 5698 5692 5692 5700 5705 5708 5708
5755 5752 5751 5750 5750 5749 5748 5747 5745 5743 5742 5740 5738 5735 5732 5730 5730 5729 5728 5726 5725 5723 5721 5720 5718 5716 5714 5713 5711 5709 5707 5705 5701 5699 5698 5697 5697 5695 5689 5687 5693 5699 5703
5756 5754 5753 5750 5748 5747 5745 5744 5741 5739 5739 5738 5736 5733 5730 5729 5727 5725 5724 5723 5722 5720 5719 5717 5715 5714 5712 5710 5708 5706 5704 5702 5700 5698 5695 5693 5690 5688 5687 5684 5686 5689 5695
5756 5753 5749 5746 5744 5743 5742 5741 5738 5736 5736 5735 5735 5733 5730 5728 5725 5723 5721 5720 5718 5716 5715 5715 5713 5711 5709 5707 5705 5703 5701 5699 5696 5694 5692 5691 5689 5688 5686 5682 5681 5683 5689
5757 5753 5750 5746 5743 5741 5740 5738 5736 5734 5734 5734 5733 5732 5730 5727 5725 5723 5721 5719 5716 5715 5714 5712 5710 5708 5706 5704 5702 5699 5697 5695 5692 5691 5689 5687 5686 5685 5683 5679 5677 5675 5679
5757 5754 5751 5747 5744 5741 5739 5738 5735 5733 5732 5732 5731 5730 5728 5725 5723 5721 5720 5717 5715 5713 5712 5710 5708 5705 5703 5701 5698 5695 5693 5691 5688 5686 5684 5681 5681 5680 5680 5679 5676 5671 5668
5757 5754 5751 5747 5744 5742 5739 5738 5735 5733 5732 5731 5729 5727 5725 5723 5721 5718 5716 5714 5712 5710 5709 5707 5705 5702 5700 5697 5694 5691 5689 5686 5684 5682 5679 5676 5675 5675 5675 5674 5673 5671 5667
5756 5753 5750 5747 5744 5741 5738 5735 5734 5732 5730 5728 5727 5724 5721 5720 5718 5715 5713 5711 5709 5707 5705 5703 5701 5698 5696 5693 5690 5687 5685 5682 5679 5677 5675 5672 5671 5669 5669 5668 5668 5666 5666
5758 5753 5749 5745 5742 5739 5736 5734 5732 5730 5727 5726 5723 5720 5718 5716 5714 5711 5710 5708 5706 5704 5702 5700 5697 5694 5692 5689 5686 5683 5680 5677 5674 5672 5670 5668 5667 5664 5663 5662 5661 5661 5662
5756 5752 5747 5743 5740 5737 5735 5733 5731 5728 5725 5722 5719 5717 5715 5712 5710 5708 5706 5703 5701 5699 5697 5694 5692 5689 5686 5684 5681 5678 5675 5673 5670 5668 5665 5663 5661 5658 5657 5656 5655 5656 5658
5754 5749 5744 5741 5739 5736 5734 5731 5729 5726 5723 5719 5716 5713 5711 5709 5706 5704 5701 5698 5696 5693 5691 5689 5686 5684 5681 5678 5675 5672 5669 5668 5666 5664 5662 5659 5657 5654 5652 5652 5650 5651 5651
5751 5748 5743 5740 5737 5735 5732 5730 5727 5724 5721 5716 5712 5709 5708 5705 5702 5699 5696 5693 5690 5688 5685 5683 5680 5678 5675 5671 5667 5664 5664 5662 5660 5659 5658 5656 5654 5652 5650 5648 5646 5645 5645
5751 5748 5744 5740 5737 5734 5731 5729 5725 5722 5718 5713 5709 5706 5704 5700 5697 5693 5691 5687 5684 5682 5679 5676 5673 5670 5668 5664 5661 5658 5656 5655 5654 5653 5652 5651 5649 5647 5646 5645 5644 5642 5641
5750 5747 5745 5741 5738 5736 5733 5728 5724 5721 5716 5710 5706 5702 5699 5694 5691 5689 5685 5681 5678 5675 5672 5669 5667 5663 5660 5658 5655 5653 5650 5649 5648 5647 5645 5645 5644 5640 5639 5639 5639 5638 5638
5748 5747 5745 5742 5740 5738 5733 5728 5723 5718 5713 5708 5703 5699 5694 5690 5686 5682 5678 5675 5672 5669 5666 5663 5660 5657 5654 5652 5649 5647 5645 5643 5642 5641 5639 5637 5635 5633 5631 5631 5631 5631 5631
5750 5748 5747 5744 5740 5736 5732 5726 5720 5715 5709 5704 5700 5696 5691 5685 5681 5676 5673 5670 5667 5663 5660 5657 5654 5651 5648 5646 5643 5640 5637 5636 5635 5634 5632 5629 5626 5625 5624 5623 5622 5622 5622
5748 5746 5744 5742 5737 5734 5730 5722 5716 5711 5706 5702 5697 5693 5688 5682 5677 5673 5669 5665 5661 5658 5655 5652 5649 5646 5643 5640 5637 5633 5630 5628 5627 5626 5624 5622 5619 5617 5614 5612 5611 5610 5611
5743 5741 5738 5734 5732 5730 5725 5717 5712 5708 5705 5700 5694 5689 5684 5679 5674 5669 5664 5660 5656 5652 5649 5646 5644 5641 5638 5634 5630 5626 5622 5619 5618 5616 5614 5612 5610 5608 5606 5604 5602 5601 5601
5734 5733 5729 5725 5725 5723 5717 5711 5707 5705 5701 5695 5689 5684 5679 5675 5670 5664 5659 5655 5650 5645 5642 5639 5637 5634 5631 5627 5623 5619 5616 5612 5608 5606 5604 5603 5601 5599 5597 5595 5594 5593 5593
5726 5724 5721 5717 5716 5714 5711 5705 5702 5699 5694 5688 5682 5678 5674 5669 5665 5659 5653 5648 5644 5639 5636 5632 5629 5626 5624 5620 5617 5612 5609 5605 5601 5598 5596 5594 5592 5589 5588 5587 5586 5584 5582
5717 5716 5712 5708 5706 5706 5703 5700 5697 5693 5688 5681 5676 5672 5667 5663 5658 5653 5649 5643 5638 5634 5630 5626 5622 5619 5616 5612 5608 5604 5600 5597 5593 5590 5588 5586 5583 5581 5579 5578 5577 5575 5573
5708 5707 5703 5700 5698 5697 5695 5693 5690 5686 5680 5675 5670 5666 5661 5657 5652 5647 5642 5638 5634 5629 5624 5620 5616 5611 5607 5604 5601 5595 5591 5587 5584 5580 5578 5576 5573 5571 5569 5568 5567 5566 5564
5698 5696 5693 5691 5690 5688 5686 5684 5681 5677 5672 5667 5663 5658 5654 5649 5644 5639 5635 5632 5628 5624 5620 5616 5610 5606 5602 5597 5593 5588 5584 5580 5575 5570 5567 5565 5563 5561 5559 5557 5556 5555 5553